Weather History for PAMH - June, 2013

Change the Weather History Date:

Tuesday, June 25, 2013

  Actual Average Record
Temperature  
Mean Temperature 72 °F -  
Max Temperature 86 °F 67 °F 86 °F (2013)
Min Temperature 57 °F 51 °F 46 °F (1998)
Cooling Degree Days 6    
Growing Degree Days 22 (Base 50)    
Moisture  
Dew Point 53 °F    
Average Humidity 54    
Maximum Humidity 88    
Minimum Humidity 33    
Precipitation  
Precipitation 0.00 in - - ()
Sea Level Pressure  
Sea Level Pressure 29.63 in    
Wind  
Wind Speed 0 mph (SE)    
Max Wind Speed 6 mph    
Max Gust Speed -    
Visibility 8 miles    
Events      
Averages and records for this station are not official NWS values.
T = Trace of Precipitation, MM = Missing Value Source: NWS Daily Summary

Daily Weather History Graph

Daily Weather History Graph

Search for Another Location

Airport or City:

Trip Planner

Search our weather history database for the weather conditions in past years. The results will help you decide how hot, cold, wet, or windy it might be!

Date:

Astronomy

Jun. 25, 2013 Rise Set
Actual Time 3:45 AM AKDT 12:37 AM AKDT
Civil Twilight Sun does not set Sun does not set
Nautical Twilight Sun does not set Sun does not set
Astronomical Twilight Sun does not set Sun does not set
Moon 12:17 AM AKDT (6/25) 8:15 AM AKDT (6/25)
Length of Visible Light 24h 00m
Length of Day
20h 52m
Waning Gibbous, 92% of the Moon is Illuminated
Jun 25
Waning Gibbous
Jun 29
Last Quarter
Jul 7
New
Jul 15
First Quarter
Jul 22
Full

Hourly Weather History & Observations

Time (AKDT) Temp. Heat Index Dew Point Humidity Pressure Visibility Wind Dir Wind Speed Gust Speed Precip Events Conditions
12:16 AM 66.2 °F - 48.2 °F 52% 29.62 in 10.0 mi Calm Calm - N/A   Overcast
12:36 AM 64.4 °F - 48.2 °F 56% 29.63 in 10.0 mi Calm Calm - N/A   Overcast
12:56 AM 66.2 °F - 48.2 °F 52% 29.63 in 10.0 mi Calm Calm - N/A   Overcast
1:16 AM 64.4 °F - 50.0 °F 59% 29.63 in 10.0 mi Calm Calm - N/A   Overcast
1:36 AM 64.4 °F - 48.2 °F 56% 29.63 in 10.0 mi Calm Calm - N/A   Overcast
1:56 AM 64.4 °F - 50.0 °F 59% 29.63 in 10.0 mi Calm Calm - N/A   Overcast
2:16 AM 62.6 °F - 50.0 °F 63% 29.64 in 10.0 mi Calm Calm - N/A   Overcast
2:36 AM 62.6 °F - 48.2 °F 59% 29.63 in 10.0 mi Calm Calm - N/A   Overcast
2:56 AM 62.6 °F - 48.2 °F 59% 29.63 in 10.0 mi Calm Calm - N/A   Overcast
3:16 AM 62.6 °F - 48.2 °F 59% 29.63 in 10.0 mi Calm Calm - N/A   Overcast
3:36 AM 62.6 °F - 48.2 °F 59% 29.64 in 10.0 mi Calm Calm - N/A   Overcast
3:56 AM 62.6 °F - 50.0 °F 63% 29.64 in 10.0 mi Calm Calm - N/A   Overcast
4:16 AM 60.8 °F - 51.8 °F 72% 29.64 in 10.0 mi Calm Calm - N/A   Overcast
4:36 AM 60.8 °F - 50.0 °F 68% 29.64 in 10.0 mi Calm Calm - N/A   Overcast
4:56 AM 60.8 °F - 50.0 °F 68% 29.64 in 7.0 mi Calm Calm - N/A   Overcast
5:16 AM 60.8 °F - 48.2 °F 63% 29.64 in 5.0 mi Calm Calm - N/A   Overcast
5:36 AM 59.0 °F - 51.8 °F 77% 29.65 in 8.0 mi Calm Calm - N/A   Overcast
5:56 AM 57.2 °F - 51.8 °F 82% 29.65 in 10.0 mi Calm Calm - N/A   Mostly Cloudy
6:16 AM 57.2 °F - 51.8 °F 82% 29.65 in 10.0 mi Calm Calm - N/A   Scattered Clouds
6:36 AM 57.2 °F - 51.8 °F 82% 29.65 in 10.0 mi Calm Calm - N/A   Partly Cloudy
6:56 AM 57.2 °F - 51.8 °F 82% 29.65 in 10.0 mi Calm Calm - N/A   Partly Cloudy
7:16 AM 57.2 °F - 53.6 °F 88% 29.65 in 10.0 mi Calm Calm - N/A   Mostly Cloudy
7:36 AM 57.2 °F - 53.6 °F 88% 29.65 in 10.0 mi Calm Calm - N/A   Mostly Cloudy
7:56 AM 60.8 °F - 53.6 °F 77% 29.65 in 10.0 mi Calm Calm - N/A   Overcast
8:16 AM 60.8 °F - 53.6 °F 77% 29.65 in 10.0 mi Calm Calm - N/A   Overcast
8:36 AM 60.8 °F - 53.6 °F 77% 29.66 in 10.0 mi Calm Calm - N/A   Overcast
8:56 AM 60.8 °F - 53.6 °F 77% 29.66 in 10.0 mi Calm Calm - N/A   Overcast
9:16 AM 62.6 °F - 53.6 °F 72% 29.66 in 10.0 mi Calm Calm - N/A   Overcast
9:36 AM 62.6 °F - 51.8 °F 68% 29.66 in 5.0 mi Calm Calm - N/A   Overcast
9:56 AM 64.4 °F - 53.6 °F 68% 29.65 in 1.8 mi Calm Calm - N/A   Overcast
10:16 AM 66.2 °F - 51.8 °F 60% 29.65 in 1.5 mi Calm Calm - N/A   Overcast
10:36 AM 68.0 °F - 51.8 °F 56% 29.65 in 2.0 mi Calm Calm - N/A   Overcast
10:56 AM 69.8 °F - 53.6 °F 56% 29.65 in 2.5 mi Calm Calm - N/A   Overcast
11:16 AM 69.8 °F - 53.6 °F 56% 29.65 in 3.0 mi Calm Calm - N/A   Overcast
11:36 AM 71.6 °F - 53.6 °F 53% 29.65 in 3.0 mi Calm Calm - N/A   Overcast
11:56 AM 73.4 °F - 53.6 °F 50% 29.64 in 5.0 mi ESE 3.5 mph - N/A   Overcast
12:16 PM 71.6 °F - 53.6 °F 53% 29.64 in 5.0 mi Calm Calm - N/A   Overcast
12:36 PM 73.4 °F - 53.6 °F 50% 29.64 in 3.0 mi Calm Calm - N/A   Overcast
12:56 PM 73.4 °F - 53.6 °F 50% 29.64 in 5.0 mi South 3.5 mph - N/A   Overcast
1:16 PM 73.4 °F - 53.6 °F 50% 29.64 in 4.0 mi South 4.6 mph - N/A   Overcast
1:36 PM 75.2 °F - 55.4 °F 50% 29.63 in 5.0 mi South 3.5 mph - N/A   Overcast
1:56 PM 77.0 °F - 55.4 °F 47% 29.63 in 5.0 mi Calm Calm - N/A   Overcast
2:16 PM 77.0 °F - 55.4 °F 47% 29.62 in 7.0 mi Calm Calm - N/A   Overcast
2:36 PM 80.6 °F 80.5 °F 55.4 °F 42% 29.62 in 10.0 mi Calm Calm - N/A   Overcast
2:56 PM 80.6 °F 80.3 °F 53.6 °F 39% 29.62 in 10.0 mi Calm Calm - N/A   Overcast
3:16 PM 82.4 °F 81.4 °F 53.6 °F 37% 29.62 in 10.0 mi ESE 4.6 mph - N/A   Mostly Cloudy
3:36 PM 84.2 °F 82.8 °F 53.6 °F 35% 29.61 in 10.0 mi ESE 4.6 mph - N/A   Mostly Cloudy
3:56 PM 84.2 °F 82.8 °F 53.6 °F 35% 29.61 in 7.0 mi SSE 4.6 mph - N/A   Scattered Clouds
4:16 PM 82.4 °F 81.4 °F 53.6 °F 37% 29.61 in 7.0 mi South 5.8 mph - N/A   Partly Cloudy
4:36 PM 84.2 °F 82.8 °F 53.6 °F 35% 29.61 in 9.0 mi ESE 3.5 mph - N/A   Clear
4:56 PM 84.2 °F 82.8 °F 53.6 °F 35% 29.61 in 6.0 mi SE 5.8 mph - N/A   Clear
5:16 PM 84.2 °F 82.8 °F 53.6 °F 35% 29.61 in 7.0 mi Calm Calm - N/A   Clear
5:36 PM 84.2 °F 82.8 °F 53.6 °F 35% 29.60 in 8.0 mi SE 3.5 mph - N/A   Clear
5:56 PM 86.0 °F 84.2 °F 53.6 °F 33% 29.60 in 8.0 mi Calm Calm - N/A   Clear
6:16 PM 84.2 °F 82.8 °F 53.6 °F 35% 29.60 in 7.0 mi SSW 3.5 mph - N/A   Clear
6:36 PM 86.0 °F 84.2 °F 53.6 °F 33% 29.60 in 10.0 mi Calm Calm - N/A   Clear
6:56 PM 86.0 °F 84.2 °F 53.6 °F 33% 29.60 in 9.0 mi Calm Calm - N/A   Clear
7:16 PM 84.2 °F 83.0 °F 55.4 °F 37% 29.59 in 10.0 mi Calm Calm - N/A   Clear
7:36 PM 84.2 °F 83.0 °F 55.4 °F 37% 29.60 in 10.0 mi Calm Calm - N/A   Clear
7:56 PM 82.4 °F 81.7 °F 55.4 °F 39% 29.59 in 10.0 mi Calm Calm - N/A   Partly Cloudy
8:16 PM 82.4 °F 81.7 °F 55.4 °F 39% 29.59 in 10.0 mi Calm Calm - N/A   Mostly Cloudy
8:36 PM 80.6 °F 80.3 °F 53.6 °F 39% 29.59 in 9.0 mi Calm Calm - N/A   Overcast
8:56 PM 78.8 °F - 53.6 °F 42% 29.60 in 5.0 mi Calm Calm - N/A   Overcast
9:16 PM 78.8 °F - 53.6 °F 42% 29.60 in 4.0 mi Calm Calm - N/A   Overcast
9:36 PM 78.8 °F - 53.6 °F 42% 29.60 in 5.0 mi Calm Calm - N/A   Overcast
9:56 PM 78.8 °F - 53.6 °F 42% 29.60 in 5.0 mi Calm Calm - N/A   Overcast
10:16 PM 78.8 °F - 55.4 °F 44% 29.61 in 5.0 mi Calm Calm - N/A   Overcast
10:36 PM 78.8 °F - 53.6 °F 42% 29.62 in 3.0 mi Calm Calm - N/A   Overcast
10:56 PM 78.8 °F - 53.6 °F 42% 29.62 in 3.0 mi Calm Calm - N/A   Partly Cloudy
11:16 PM 78.8 °F - 55.4 °F 44% 29.63 in 3.0 mi East 3.5 mph - N/A   Partly Cloudy
11:36 PM 71.6 °F - 59.0 °F 64% 29.63 in 5.0 mi Calm Calm - N/A   Mostly Cloudy
11:56 PM 71.6 °F - 57.2 °F 60% 29.64 in 5.0 mi Calm Calm - N/A   Mostly Cloudy